Year,Month,Day,Hour,Minute,Value (Times are PST for temperature in C)
2008,08,23,00,00,17.30
2008,08,23,00,01,17.30
2008,08,23,00,02,17.30
2008,08,23,00,03,17.30
2008,08,23,00,04,17.30
2008,08,23,00,05,17.30
2008,08,23,00,06,17.30
2008,08,23,00,07,17.30
2008,08,23,00,08,17.30
2008,08,23,00,09,17.30
2008,08,23,00,10,17.30
2008,08,23,00,11,17.30
2008,08,23,00,12,17.30
2008,08,23,00,13,17.30
2008,08,23,00,14,17.30
2008,08,23,00,15,17.30
2008,08,23,00,16,17.30
2008,08,23,00,17,17.30
2008,08,23,00,18,17.30
2008,08,23,00,19,17.30
2008,08,23,00,20,17.30
2008,08,23,00,21,17.30
2008,08,23,00,22,17.20
2008,08,23,00,23,17.20
2008,08,23,00,24,17.20
2008,08,23,00,25,17.20
2008,08,23,00,26,17.20
2008,08,23,00,27,17.20
2008,08,23,00,28,17.20
2008,08,23,00,29,17.20
2008,08,23,00,30,17.20
2008,08,23,00,31,17.20
2008,08,23,00,32,17.10
2008,08,23,00,33,17.10
2008,08,23,00,34,17.10
2008,08,23,00,35,17.10
2008,08,23,00,36,17.10
2008,08,23,00,37,17.10
2008,08,23,00,38,17.10
2008,08,23,00,39,17.10
2008,08,23,00,40,17.10
2008,08,23,00,41,17.10
2008,08,23,00,42,17.10
2008,08,23,00,43,17.10
2008,08,23,00,44,17.10
2008,08,23,00,45,17.10
2008,08,23,00,46,17.10
2008,08,23,00,47,17.10
2008,08,23,00,48,17.10
2008,08,23,00,49,17.10
2008,08,23,00,50,17.00
2008,08,23,00,51,17.10
2008,08,23,00,52,17.00
2008,08,23,00,53,17.10
2008,08,23,00,54,17.10
2008,08,23,00,55,17.10
2008,08,23,00,56,17.00
2008,08,23,00,57,17.00
2008,08,23,00,58,17.00
2008,08,23,00,59,17.10
2008,08,23,01,00,17.00
2008,08,23,01,01,17.00
2008,08,23,01,02,17.10
2008,08,23,01,03,17.10
2008,08,23,01,04,17.10
2008,08,23,01,05,17.10
2008,08,23,01,06,17.10
2008,08,23,01,07,17.10
2008,08,23,01,08,17.10
2008,08,23,01,09,17.10
2008,08,23,01,10,17.10
2008,08,23,01,11,17.10
2008,08,23,01,12,17.10
2008,08,23,01,13,17.10
2008,08,23,01,14,17.10
2008,08,23,01,15,17.10
2008,08,23,01,16,17.10
2008,08,23,01,17,17.10
2008,08,23,01,18,17.10
2008,08,23,01,19,17.10
2008,08,23,01,20,17.10
2008,08,23,01,21,17.10
2008,08,23,01,22,17.10
2008,08,23,01,23,17.10
2008,08,23,01,24,17.10
2008,08,23,01,25,17.10
2008,08,23,01,26,17.00
2008,08,23,01,27,17.00
2008,08,23,01,28,16.90
2008,08,23,01,29,16.90
2008,08,23,01,30,16.90
2008,08,23,01,31,16.90
2008,08,23,01,32,16.90
2008,08,23,01,33,16.80
2008,08,23,01,34,16.80
2008,08,23,01,35,16.80
2008,08,23,01,36,16.80
2008,08,23,01,37,16.80
2008,08,23,01,38,16.80
2008,08,23,01,39,16.80
2008,08,23,01,40,16.80
2008,08,23,01,41,16.80
2008,08,23,01,42,16.80
2008,08,23,01,43,16.80
2008,08,23,01,44,16.80
2008,08,23,01,45,16.80
2008,08,23,01,46,16.80
2008,08,23,01,47,16.80
2008,08,23,01,48,16.70
2008,08,23,01,49,16.70
2008,08,23,01,50,16.70
2008,08,23,01,51,16.70
2008,08,23,01,52,16.70
2008,08,23,01,53,16.70
2008,08,23,01,54,16.70
2008,08,23,01,55,16.70
2008,08,23,01,56,16.70
2008,08,23,01,57,16.70
2008,08,23,01,58,16.70
2008,08,23,01,59,16.70
2008,08,23,02,00,16.70
2008,08,23,02,01,16.70
2008,08,23,02,02,16.70
2008,08,23,02,03,16.70
2008,08,23,02,04,16.70
2008,08,23,02,05,16.70
2008,08,23,02,06,16.70
2008,08,23,02,07,16.70
2008,08,23,02,08,16.70
2008,08,23,02,09,16.70
2008,08,23,02,10,16.70
2008,08,23,02,11,16.60
2008,08,23,02,12,16.50
2008,08,23,02,13,16.40
2008,08,23,02,14,16.40
2008,08,23,02,15,16.30
2008,08,23,02,16,16.30
2008,08,23,02,17,16.30
2008,08,23,02,18,16.20
2008,08,23,02,19,16.20
2008,08,23,02,20,16.20
2008,08,23,02,21,16.10
2008,08,23,02,22,16.10
2008,08,23,02,23,16.10
2008,08,23,02,24,16.10
2008,08,23,02,25,16.10
2008,08,23,02,26,16.10
2008,08,23,02,27,16.10
2008,08,23,02,28,16.10
2008,08,23,02,29,16.00
2008,08,23,02,30,16.00
2008,08,23,02,31,16.00
2008,08,23,02,32,16.00
2008,08,23,02,33,16.00
2008,08,23,02,34,16.00
2008,08,23,02,35,16.00
2008,08,23,02,36,16.00
2008,08,23,02,37,16.00
2008,08,23,02,38,16.00
2008,08,23,02,39,16.00
2008,08,23,02,40,16.00
2008,08,23,02,41,16.00
2008,08,23,02,42,16.00
2008,08,23,02,43,15.90
2008,08,23,02,44,15.90
2008,08,23,02,45,15.90
2008,08,23,02,46,15.90
2008,08,23,02,47,15.90
2008,08,23,02,48,15.90
2008,08,23,02,49,15.90
2008,08,23,02,50,15.90
2008,08,23,02,51,15.90
2008,08,23,02,52,15.90
2008,08,23,02,53,15.90
2008,08,23,02,54,15.90
2008,08,23,02,55,15.90
2008,08,23,02,56,15.90
2008,08,23,02,57,15.90
2008,08,23,02,58,15.90
2008,08,23,02,59,15.90
2008,08,23,03,00,15.90
2008,08,23,03,01,15.90
2008,08,23,03,02,15.90
2008,08,23,03,03,15.90
2008,08,23,03,04,15.90
2008,08,23,03,05,15.90
2008,08,23,03,06,15.90
2008,08,23,03,07,15.90
2008,08,23,03,08,15.90
2008,08,23,03,09,15.90
2008,08,23,03,10,15.90
2008,08,23,03,11,15.90
2008,08,23,03,12,15.90
2008,08,23,03,13,15.90
2008,08,23,03,14,15.90
2008,08,23,03,15,15.90
2008,08,23,03,16,15.90
2008,08,23,03,17,15.90
2008,08,23,03,18,15.90
2008,08,23,03,19,15.90
2008,08,23,03,20,15.90
2008,08,23,03,21,15.90
2008,08,23,03,22,15.90
2008,08,23,03,23,15.90
2008,08,23,03,24,15.90
2008,08,23,03,25,15.90
2008,08,23,03,26,15.90
2008,08,23,03,27,15.90
2008,08,23,03,28,15.90
2008,08,23,03,29,15.90
2008,08,23,03,30,15.90
2008,08,23,03,31,15.90
2008,08,23,03,32,15.90
2008,08,23,03,33,15.80
2008,08,23,03,34,15.80
2008,08,23,03,35,15.80
2008,08,23,03,36,15.80
2008,08,23,03,37,15.80
2008,08,23,03,38,15.80
2008,08,23,03,39,15.80
2008,08,23,03,40,15.80
2008,08,23,03,41,15.80
2008,08,23,03,42,15.80
2008,08,23,03,43,15.80
2008,08,23,03,44,15.80
2008,08,23,03,45,15.80
2008,08,23,03,46,15.80
2008,08,23,03,47,15.80
2008,08,23,03,48,15.80
2008,08,23,03,49,15.90
2008,08,23,03,50,15.90
2008,08,23,03,51,15.90
2008,08,23,03,52,15.90
2008,08,23,03,53,15.90
2008,08,23,03,54,15.90
2008,08,23,03,55,15.90
2008,08,23,03,56,15.90
2008,08,23,03,57,15.90
2008,08,23,03,58,15.90
2008,08,23,03,59,15.90
2008,08,23,04,00,15.90
2008,08,23,04,01,15.90
2008,08,23,04,02,15.90
2008,08,23,04,03,15.90
2008,08,23,04,04,15.90
2008,08,23,04,05,15.90
2008,08,23,04,06,15.90
2008,08,23,04,07,15.80
2008,08,23,04,08,15.80
2008,08,23,04,09,15.80
2008,08,23,04,10,15.80
2008,08,23,04,11,15.90
2008,08,23,04,12,15.90
2008,08,23,04,13,15.90
2008,08,23,04,14,15.90
2008,08,23,04,15,15.90
2008,08,23,04,16,15.90
2008,08,23,04,17,15.90
2008,08,23,04,18,15.90
2008,08,23,04,19,15.90
2008,08,23,04,20,15.90
2008,08,23,04,21,15.90
2008,08,23,04,22,15.90
2008,08,23,04,23,15.90
2008,08,23,04,24,15.90
2008,08,23,04,25,15.90
2008,08,23,04,26,15.90
2008,08,23,04,27,15.90
2008,08,23,04,28,15.80
2008,08,23,04,29,15.80
2008,08,23,04,30,15.80
2008,08,23,04,31,15.80
2008,08,23,04,32,15.80
2008,08,23,04,33,15.80
2008,08,23,04,34,15.80
2008,08,23,04,35,15.80
2008,08,23,04,36,15.80
